KC5TIL-3 Weather Reports


Display with metric or nautical units.
time (UTC)temp
F
wind
direction
speed
MPH
gust
MPH
rain 1hr
in
rain 24hr
in
rain mn
in
humidity
%
barometer
mb
20260510185247 71 143 7.0 9.0 0.00 0.00 0.00 46 1013.8
20260510184749 71 53 6.0 11.0 0.00 0.00 0.00 45 1013.8
20260510184248 71 347 6.0 14.0 0.00 0.00 0.00 45 1013.8
20260510183749 71 331 8.0 11.0 0.00 0.00 0.00 43 1013.8
20260510183251 72 38 5.0 12.0 0.00 0.00 0.00 40 1013.8
20260510182750 72 305 7.0 12.0 0.00 0.00 0.00 38 1013.8
20260510182252 72 308 5.0 11.0 0.00 0.00 0.00 36 1013.8
20260510181754 73 299 5.0 13.0 0.00 0.00 0.00 34 1013.8
20260510181252 73 56 7.0 13.0 0.00 0.00 0.00 33 1013.8
20260510180754 73 270 7.0 12.0 0.00 0.00 0.00 33 1013.8
20260510180256 74 182 6.0 12.0 0.00 0.00 0.00 34 1013.8
20260510175755 72 129 8.0 10.0 0.00 0.00 0.00 35 1013.8
20260510175257 71 140 5.0 10.0 0.00 0.00 0.00 37 1013.8
20260510174758 71 351 6.0 12.0 0.00 0.00 0.00 37 1013.8
20260510174257 71 90 7.0 15.0 0.00 0.00 0.00 36 1013.8
20260510173301 72 15 7.0 16.0 0.00 0.00 0.00 36 1013.8
20260510172759 72 17 9.0 19.0 0.00 0.00 0.00 35 1013.8
20260510172301 72 19 13.0 8.0 0.00 0.00 0.00 34 1013.8
20260510171804 79 183 5.0 7.0 0.00 0.00 0.00 33 1013.8
20260510171302 79 76 3.0 5.0 0.00 0.00 0.00 33 1013.8
20260510170305 80 98 5.0 7.0 0.00 0.00 0.00 32 1012.8
20260510165804 80 245 3.0 5.0 0.00 0.00 0.00 32 1012.8
20260510165307 80 164 0.0 6.0 0.00 0.00 0.00 31 1011.8
20260510164808 80 184 4.0 9.0 0.00 0.00 0.00 31 1011.8
20260510164306 81 128 5.0 11.0 0.00 0.00 0.00 32 1011.8
20260510163310 79 149 6.0 14.0 0.00 0.00 0.00 33 1011.8
20260510162804 79 151 6.0 9.0 0.00 0.00 0.00 33 1011.8
20260510161302 79 219 8.0 13.0 0.00 0.00 0.00 34 1011.8
20260510160804 79 110 8.0 12.0 0.00 0.00 0.00 34 1011.8
20260510160305 77 199 8.0 13.0 0.00 0.00 0.00 35 1011.8
20260510155804 78 133 8.0 18.0 0.00 0.00 0.00 35 1011.8
20260510155307 77 139 12.0 19.0 0.00 0.00 0.00 35 1010.8
20260510154808 77 140 11.0 15.0 0.00 0.00 0.00 34 1010.8
20260510154307 77 121 9.0 16.0 0.00 0.00 0.00 34 1010.8
20260510152809 76 134 13.0 16.0 0.00 0.00 0.00 35 1010.8
20260510152312 76 146 11.0 15.0 0.00 0.00 0.00 34 1011.8
20260510151813 76 128 10.0 16.0 0.00 0.00 0.00 34 1011.8
20260510151311 75 139 9.0 18.0 0.00 0.00 0.00 35 1011.8
20260510150314 75 137 9.0 16.0 0.00 0.00 0.00 35 1011.8
20260510145315 74 110 7.0 15.0 0.00 0.00 0.00 34 1011.8
20260510144812 74 121 10.0 17.0 0.00 0.00 0.00 33 1011.8
20260510144311 74 137 14.0 17.0 0.00 0.00 0.00 33 1011.8
20260510142808 73 126 9.0 15.0 0.00 0.00 0.00 34 1011.8
20260510142310 73 106 10.0 16.0 0.00 0.00 0.00 34 1011.8
20260510141812 73 117 10.0 18.0 0.00 0.00 0.00 35 1011.8
20260510140315 72 120 8.0 15.0 0.00 0.00 0.00 36 1011.8
20260510135813 72 137 9.0 14.0 0.00 0.00 0.00 36 1011.8
20260510134817 71 130 9.0 14.0 0.00 0.00 0.00 39 1011.8
20260510134316 72 129 9.0 15.0 0.00 0.00 0.00 38 1011.8
20260510133310 71 109 8.0 12.0 0.00 0.00 0.00 38 1011.8
20260510131808 71 116 7.0 12.0 0.00 0.00 0.00 40 1011.8
20260510130305 70 123 12.0 13.0 0.00 0.00 0.00 42 1011.8
20260510120809 70 114 7.0 13.0 0.00 0.00 0.00 43 1010.8
20260510120310 70 182 5.0 14.0 0.00 0.00 0.00 43 1010.8
20260510115311 70 139 10.0 12.0 0.00 0.00 0.00 43 1010.8
20260510114813 70 105 8.0 15.0 0.00 0.00 0.00 43 1010.8
20260510114307 70 103 7.0 13.0 0.00 0.00 0.00 44 1010.8
20260510113804 71 177 8.0 15.0 0.00 0.00 0.00 43 1010.8
20260510113306 71 160 5.0 14.0 0.00 0.00 0.00 44 1010.8
20260510112307 71 112 10.0 16.0 0.00 0.00 0.00 45 1010.8
20260510110311 72 96 12.0 18.0 0.00 0.00 0.00 46 1010.8
20260510105312 72 146 11.0 18.0 0.00 0.00 0.00 46 1010.8
20260510103814 73 139 7.0 13.0 0.00 0.00 0.00 51 1010.8
20260510103311 73 118 10.0 13.0 0.00 0.00 0.00 54 1010.8
20260510102306 75 191 8.0 15.0 0.00 0.00 0.00 59 1010.8
20260510101305 75 96 7.0 10.0 0.00 0.00 0.00 57 1010.8
20260510095803 75 246 4.0 10.0 0.00 0.00 0.00 57 1009.8
20260510095306 74 158 4.0 8.0 0.00 0.00 0.00 58 1009.8
20260510094306 74 79 4.0 7.0 0.00 0.00 0.00 61 1009.8
20260510093808 74 59 6.0 7.0 0.00 0.00 0.00 62 1009.8
20260510092808 74 85 5.0 8.0 0.00 0.00 0.00 63 1009.8
20260510092256 73 85 4.0 5.0 0.00 0.00 0.00 63 1008.8
20260510090759 73 72 3.0 5.0 0.00 0.00 0.00 62 1008.8
20260510085759 73 63 0.0 6.0 0.00 0.00 0.00 60 1008.8
20260510085305 73 81 3.0 8.0 0.00 0.00 0.00 60 1008.8
20260510084804 73 39 4.0 8.0 0.00 0.00 0.00 59 1008.8
20260510084301 73 43 6.0 7.0 0.00 0.00 0.00 58 1008.8
20260510083800 73 17 6.0 7.0 0.00 0.00 0.00 58 1008.8
20260510083302 73 37 6.0 7.0 0.00 0.00 0.00 57 1008.8
20260510082759 73 330 6.0 7.0 0.00 0.00 0.00 56 1008.8
20260510082301 73 19 5.0 5.0 0.00 0.00 0.00 55 1007.8
20260510081803 73 23 4.0 3.0 0.00 0.00 0.00 54 1007.8
20260510075804 74 124 5.0 7.0 0.00 0.00 0.00 51 1007.8
20260510074307 74 138 4.0 5.0 0.00 0.00 0.00 47 1007.8
20260510072809 74 131 5.0 9.0 0.00 0.00 0.00 44 1007.8
20260510071302 74 117 5.0 8.0 0.00 0.00 0.00 42 1007.8
20260510065755 75 80 0.0 7.0 0.00 0.00 0.00 41 1008.8
20260510065257 75 84 3.0 6.0 0.00 0.00 0.00 40 1008.8
20260510064248 75 27 3.0 10.0 0.00 0.00 0.00 38 1008.8
20260510063252 75 64 7.0 12.0 0.00 0.00 0.00 38 1007.8
20260510062750 76 17 9.0 4.0 0.00 0.00 0.00 36 1007.8
20260510062252 76 167 0.0 5.0 0.00 0.00 0.00 36 1006.8
20260510061754 76 206 0.0 8.0 0.00 0.00 0.00 35 1006.8
20260510060208 77 137 7.0 10.0 0.00 0.00 0.00 32 1006.8
20260510055755 77 145 3.0 8.0 0.00 0.00 0.00 33 1006.8
20260510055258 77 144 6.0 8.0 0.00 0.00 0.00 33 1006.8
20260510054759 77 122 6.0 10.0 0.00 0.00 0.00 33 1006.8
20260510054258 77 186 6.0 10.0 0.00 0.00 0.00 32 1006.8
20260510053301 77 137 7.0 10.0 0.00 0.00 0.00 32 1006.8
20260510052258 77 138 5.0 11.0 0.00 0.00 0.00 32 1006.8
20260510051759 78 169 7.0 11.0 0.00 0.00 0.00 32 1006.8
20260510051257 78 124 8.0 15.0 0.00 0.00 0.00 31 1006.8
20260510050759 78 132 9.0 13.0 0.00 0.00 0.00 31 1005.8
20260510050302 78 134 10.0 12.0 0.00 0.00 0.00 31 1005.8
20260510045800 78 129 9.0 11.0 0.00 0.00 0.00 31 1005.8
20260510045257 78 113 7.0 15.0 0.00 0.00 0.00 31 1006.8
20260510044759 78 117 7.0 14.0 0.00 0.00 0.00 30 1006.8
20260510044258 78 141 11.0 11.0 0.00 0.00 0.00 30 1006.8
20260510043801 78 133 8.0 10.0 0.00 0.00 0.00 30 1006.8
20260510043302 78 121 6.0 10.0 0.00 0.00 0.00 29 1006.8
20260510041805 78 152 6.0 11.0 0.00 0.00 0.00 27 1006.8
20260510041303 79 133 7.0 12.0 0.00 0.00 0.00 27 1006.8
20260510040805 79 133 8.0 12.0 0.00 0.00 0.00 27 1006.8
20260510040306 79 154 9.0 12.0 0.00 0.00 0.00 27 1006.8
20260510035801 79 128 9.0 11.0 0.00 0.00 0.00 27 1006.8
20260510035306 79 128 8.0 11.0 0.00 0.00 0.00 26 1006.8
20260510034804 79 122 9.0 10.0 0.00 0.00 0.00 26 1006.8
20260510034303 79 154 8.0 11.0 0.00 0.00 0.00 26 1006.8
20260510033805 79 131 8.0 10.0 0.00 0.00 0.00 26 1006.8
20260510033307 79 127 8.0 12.0 0.00 0.00 0.00 26 1006.8
20260510032806 80 119 9.0 13.0 0.00 0.00 0.00 26 1006.8
20260510032307 80 111 8.0 12.0 0.00 0.00 0.00 26 1006.8
20260510031809 80 130 9.0 12.0 0.00 0.00 0.00 25 1006.8
20260510031308 80 121 8.0 10.0 0.00 0.00 0.00 26 1006.8
20260510030811 80 120 8.0 11.0 0.00 0.00 0.00 26 1006.8
20260510030312 81 108 7.0 12.0 0.00 0.00 0.00 25 1006.8
20260510025312 81 123 8.0 12.0 0.00 0.00 0.00 25 1006.8
20260510024810 81 104 10.0 11.0 0.00 0.00 0.00 24 1006.8
20260510024308 81 113 7.0 11.0 0.00 0.00 0.00 23 1006.8
20260510023810 81 121 6.0 12.0 0.00 0.00 0.00 21 1006.8
20260510023312 82 123 9.0 10.0 0.00 0.00 0.00 20 1006.8
20260510022313 83 133 5.0 7.0 0.00 0.00 0.00 19 1005.8
20260510021814 83 139 6.0 6.0 0.00 0.00 0.00 19 1005.8
20260510021313 83 143 4.0 7.0 0.00 0.00 0.00 19 1005.8
20260510020815 83 127 4.0 8.0 0.00 0.00 0.00 19 1005.8
20260510020317 84 145 5.0 7.0 0.00 0.00 0.00 19 1005.8
20260510015815 84 138 4.0 7.0 0.00 0.00 0.00 18 1005.8
20260510015317 84 142 5.0 7.0 0.00 0.00 0.00 18 1005.8
20260510014819 84 146 4.0 8.0 0.00 0.00 0.00 18 1005.8
20260510013820 85 134 6.0 7.0 0.00 0.00 0.00 18 1005.8
20260510013321 85 136 5.0 7.0 0.00 0.00 0.00 18 1005.8
20260510012322 85 128 6.0 8.0 0.00 0.00 0.00 16 1005.8
20260510011824 86 132 5.0 8.0 0.00 0.00 0.00 16 1005.8
20260510011322 86 128 6.0 6.0 0.00 0.00 0.00 16 1005.8
20260510010824 86 129 4.0 7.0 0.00 0.00 0.00 16 1005.8
20260510010326 87 145 4.0 6.0 0.00 0.00 0.00 16 1005.8
20260510005327 87 180 4.0 7.0 0.00 0.00 0.00 15 1005.8
20260510004829 87 213 5.0 6.0 0.00 0.00 0.00 15 1005.8
20260510004327 88 216 4.0 7.0 0.00 0.00 0.00 15 1005.8
20260510003824 88 156 4.0 7.0 0.00 0.00 0.00 15 1005.8
20260510002825 88 131 5.0 7.0 0.00 0.00 0.00 15 1005.8
20260510002327 88 122 5.0 8.0 0.00 0.00 0.00 15 1005.8
20260510001327 88 110 7.0 8.0 0.00 0.00 0.00 15 1005.8
20260509235825 88 117 6.0 10.0 0.00 0.00 0.00 15 1005.8
20260509234328 88 125 7.0 8.0 0.00 0.00 0.00 15 1005.8
20260509233829 89 130 6.0 9.0 0.00 0.00 0.00 15 1005.8
20260509232829 89 114 6.0 8.0 0.00 0.00 0.00 15 1005.8
20260509232331 88 114 6.0 8.0 0.00 0.00 0.00 15 1005.8
20260509231327 89 147 4.0 8.0 0.00 0.00 0.00 15 1005.8
20260509230829 90 163 4.0 7.0 0.00 0.00 0.00 15 1005.8
20260509230312 90 123 4.0 6.0 0.00 0.00 0.00 15 1005.8
20260509225810 90 113 5.0 8.0 0.00 0.00 0.00 15 1005.8
20260509225311 89 118 6.0 8.0 0.00 0.00 0.00 15 1005.8
20260509224307 90 113 4.0 7.0 0.00 0.00 0.00 15 1005.8
20260509223808 90 336 3.0 4.0 0.00 0.00 0.00 15 1005.8
20260509223311 90 211 0.0 5.0 0.00 0.00 0.00 15 1005.8
20260509222809 89 207 3.0 5.0 0.00 0.00 0.00 15 1005.8
20260509222311 91 205 4.0 7.0 0.00 0.00 0.00 12 1005.8
20260509221813 91 135 3.0 5.0 0.00 0.00 0.00 14 1005.8
20260509220813 90 192 0.0 7.0 0.00 0.00 0.00 14 1005.8
20260509215814 90 130 4.0 7.0 0.00 0.00 0.00 15 1005.8
20260509215311 90 109 0.0 5.0 0.00 0.00 0.00 15 1005.8
20260509214813 88 34 4.0 7.0 0.00 0.00 0.00 12 1005.8
20260509214311 88 21 4.0 7.0 0.00 0.00 0.00 13 1005.8
20260509213808 88 16 4.0 6.0 0.00 0.00 0.00 15 1005.8
20260509213311 89 49 4.0 6.0 0.00 0.00 0.00 15 1005.8
20260509212809 89 34 4.0 6.0 0.00 0.00 0.00 15 1005.8
20260509211758 88 5 6.0 4.0 0.00 0.00 0.00 15 1005.8
20260509211257 89 291 0.0 5.0 0.00 0.00 0.00 15 1005.8
20260509210744 88 4 3.0 7.0 0.00 0.00 0.00 13 1006.8
20260509210246 88 351 3.0 7.0 0.00 0.00 0.00 13 1006.8
20260509205745 88 15 5.0 7.0 0.00 0.00 0.00 13 1006.8
20260509204749 91 307 3.0 4.0 0.00 0.00 0.00 12 1006.8
20260509204247 90 307 0.0 5.0 0.00 0.00 0.00 12 1006.8
20260509203749 90 308 0.0 5.0 0.00 0.00 0.00 12 1006.8
20260509203251 89 312 3.0 4.0 0.00 0.00 0.00 12 1006.8
20260509202750 88 303 4.0 7.0 0.00 0.00 0.00 13 1006.8
20260509201248 88 0 4.0 5.0 0.00 0.00 0.00 13 1006.8
20260509200749 88 8 4.0 6.0 0.00 0.00 0.00 15 1006.8
20260509200252 88 69 4.0 9.0 0.00 0.00 0.00 15 1006.8
20260509195750 87 134 7.0 7.0 0.00 0.00 0.00 15 1006.8
20260509194252 87 309 0.0 4.0 0.00 0.00 0.00 15 1007.8
20260509192755 87 17 6.0 7.0 0.00 0.00 0.00 18 1007.8
20260509191759 88 138 4.0 5.0 0.00 0.00 0.00 18 1007.8
20260509191257 87 6 4.0 7.0 0.00 0.00 0.00 18 1007.8
20260509190256 86 33 4.0 6.0 0.00 0.00 0.00 19 1007.8
20260509185750 87 40 4.0 7.0 0.00 0.00 0.00 18 1007.8